Regional Weather Roundup
Issued by NWS

Home | Current Version | Previous Version | Text Only | Print | Product List | Glossary On
Versions: 1 2 3 4 5 6 7 8 9 10 11 12 13 14 15 16 17 18 19 20 21 22 23 24 25 26 27 28 29 30 31 32 33 34 35 36 37 38 39 40 41 42 43 44 45 46 47 48 49 50
000
ASUS46 KLOX 281112
RWRCA

SOUTHERN CALIFORNIA WEATHER ROUNDUP
NATIONAL WEATHER SERVICE OXNARD CALIFORNIA
300 AM PST FRI NOV 28 2014

NOTE: "FAIR" INDICATES FEW OR NO CLOUDS BELOW 12,000 FEET WITH NO
SIGNIFICANT WEATHER AND/OR OBSTRUCTIONS TO VISIBILITY.

  -  STATIONS PRECEEDED BY AN ASTERISK (*) ARE NOT NWS OR FAA
     STATIONS AND ARE NOT SUBJECT TO NWS AND FAA QUALITY CONTROL.

CAZ041-042-087-281200-
LA AND ORANGE COUNTY COASTAL AREAS


CITY           SKY/WX    TMP DP  RH WIND       PRES   REMARKS
L.A. DOWNTOWN  CLEAR     56  37  49 CALM      29.98F
L.A. AIRPORT   CLEAR     57  40  52 E5        29.99S
LONG BEACH     CLEAR     53  44  71 CALM      29.99S

CITY           SKY/WX    TMP DP  RH WIND       PRES   REMARKS
AVALON           N/A     54 N/A N/A MISG        N/A
FULLERTON      CLEAR     54  35  48 E3        29.98F
*GETTY CENTER    N/A     72  18  13 N5          N/A
HAWTHORNE      CLEAR     56  46  69 CALM      29.99S
*LEO CARRILLO    N/A     64  21  19 N7          N/A
*LOS ALAMITOS  FAIR      50  42  74 CALM      29.99S
*REDONDO BEACH   N/A     52  43  72 CALM      29.98S
SANTA ANA      CLEAR     57  38  48 CALM      29.98F
STA MONICA APT CLEAR     57  35  43 NE5       29.99S
*STA MON PIER    N/A     62  33  34 CALM      29.98

$$

CAZ547-548-048-281200-
LA COUNTY VALLEYS AND INLAND EMPIRE


CITY           SKY/WX    TMP DP  RH WIND       PRES   REMARKS
BURBANK        CLEAR     53  29  39 CALM      30.00S
VAN NUYS       CLEAR     55  32  41 NW3       30.01S

CITY           SKY/WX    TMP DP  RH WIND       PRES   REMARKS
CORONA AIRPORT SUNNY     37  28  70 CALM      30.02F
*CHATSWORTH      N/A     53  32  44 CALM      29.98S
CHINO          CLEAR     48  38  68 N3        30.02F
MARCH AFB      CLEAR     41  15  34 CALM      30.03F
*NORTHRIDGE      N/A     52  27  37 CALM        N/A
ONTARIO        PTCLDY    53  29  39 CALM      30.01F
*PASADENA        N/A     59  28  31 CALM        N/A
RIVERSIDE      CLEAR     55  27  34 NE6       30.02S
SAN BERNARDINO NOT AVBL
*SAN RAFAEL HI   N/A     73   2   6 CALM        N/A
*SAUGUS          N/A     57  17  21 NE5         N/A
*WHITEMAN AP   NOT AVBL
*WHITTIER HILL   N/A     72  19  13 E7          N/A
*WOODLAND HILL   N/A     48  27  43 S1          N/A

$$

CAZ054-055-281200-
LA AND SAN BERNARDINO COUNTY MOUNTAINS


CITY           SKY/WX    TMP DP  RH WIND       PRES   REMARKS
*ACTON           N/A     45  12  26 N7          N/A
*BIG BEAR AIRP SUNNY     27  12  54 CALM      30.30F
*BIG PINES       N/A     53  -7   8 CALM        N/A
MT WILSON NWS    N/A     59   9  13 SW5         N/A
SANDBERG       CLEAR     63  14  15 W5        30.17F

$$

CAZ028-029-059-060-099-281200-
ANTELOPE VALLEY AND SURROUNDING AREAS


CITY           SKY/WX    TMP DP  RH WIND       PRES   REMARKS
LANCASTER      CLEAR     35  13  40 CALM      30.12F
PALMDALE       CLEAR     38  15  39 CALM      30.11F
*POPPY PARK      N/A     44  17  34 CALM        N/A

CITY           SKY/WX    TMP DP  RH WIND       PRES   REMARKS
29 PALMS       CLEAR     46  14  27 N3        30.15F
BARSTOW/DAGGET CLEAR     43  12  28 W9        30.10F
BISHOP         PTCLDY    26  12  55 NW6       30.15F WCI  19
CHINA LAKE     CLEAR     34   9  35 W3        30.10F
EDWARDS AFB    CLEAR     34   5  29 CALM      30.10F
MOJAVE         FAIR      43  12  28 NW5       30.11F
NEEDLES        CLEAR     51  20  29 CALM      30.07F
VICTORVILLE    CLEAR     39  12  33 S7        30.11S WCI  34

$$

CAZ039-040-281200-
VENTURA AND SANTA BARBARA COUNTY COAST


CITY           SKY/WX    TMP DP  RH WIND       PRES   REMARKS
CAMARILLO      CLEAR     53  31  42 NE3       29.98F
NWS OXNARD       N/A     53  31  43 CALM      29.97S
OXNARD AIRPORT CLEAR     60  26  27 NE7       29.98S
*POINT MUGU    CLEAR     53  38  56 N7        29.99S
SBA APT/GOLETA CLEAR     48  40  73 CALM      29.97F
*SANTA BARBARA   N/A     52  37  56 CALM      30.05F
*VENTURA         N/A     61  27  27 NE3       30.02S

$$

CAZ044-045-281200-
VENTURA COUNTY VALLEYS


CITY           SKY/WX    TMP DP  RH WIND       PRES   REMARKS
*SIMI VALLEY     N/A     55  28  34 CALM      29.94S
*OJAI            N/A     41  33  72 CALM      29.96S
*FILLMORE        N/A     46  33  61 CALM      29.91R

$$

CAZ053-281200-
VENTURA COUNTY MOUNTAINS


CITY           SKY/WX    TMP DP  RH WIND       PRES   REMARKS
*LOCKWOOD VLY    N/A     28  10  47 CALM        N/A
*ROSE VALLEY     N/A     27  18  69 MISG        N/A

$$

CAZ034-035-036-281200-
CENTRAL COAST AND SANTA YNEZ VALLEY


CITY           SKY/WX    TMP DP  RH WIND       PRES   REMARKS
SAN LUIS OBISP CLEAR     42  39  89 SE3       30.03S
SANTA MARIA    CLEAR     46  37  71 S5        30.04S

CITY           SKY/WX    TMP DP  RH WIND       PRES   REMARKS
*CAL POLY SLO    N/A     43  39  87 CALM        N/A
*LOMPOC        CLEAR     39  34  81 CALM      30.03S
*PISMO BEACH     N/A     46  42  85 NE3       30.03F
*SANTA YNEZ    FAIR      43  34  70 CALM      30.03S

$$

CAZ037-038-051-281200-
SAN LUIS OBISPO COUNTY INTERIOR AND CUYAMA VALLEY


CITY           SKY/WX    TMP DP  RH WIND       PRES   REMARKS
*CUYAMA          N/A     47  25  42 SE2       30.03S
PASO ROBLES    CLEAR     40  33  76 CALM      30.06F

$$

CAZ032-033-061-281200-
SOUTHERN DESERTS


CITY           SKY/WX    TMP DP  RH WIND       PRES   REMARKS
BLYTHE         CLEAR     53  19  26 CALM      30.03F
IMPERIAL       CLEAR     51  27  39 W8        29.98F
PALM SPRINGS   CLEAR     58  23  26 NW8       30.02F
THERMAL        CLEAR     41  30  65 CALM      29.98F

$$

ELSEWHERE ACROSS THE WESTERN UNITED STATES AND MEXICO


CITY           SKY/WX    TMP DP  RH WIND       PRES   REMARKS
DENVER, CO     CLOUDY    46  16  30 W9        29.99F
GRAND CANYON,  MOCLDY    18   3  52 CALM      30.30F
HONOLULU, HI   PTCLDY    75  59  57 NE10      30.04F
KAHULUI, MAUI  LGT RAIN  73  66  78 NE16G23   30.06F
LAKE TAHOE, CA CLEAR     53 -12   6 S13G28    30.12F
LAS VEGAS, NV  PTCLDY    45  22  40 SW6       30.09S
MAMMOTH LAKES, FAIR      32   7  34 CALM      30.22F
MEXICO CITY, M PTCLDY    39  32  75 E5        30.41F
PHOENIX, AZ    CLEAR     55  29  36 E5        30.04F
PORTLAND, OR   CLOUDY    54  51  90 S15G24    29.76F
RENO, NV       CLEAR     42  15  33 NE6       30.04F
SALT LAKE CITY CLOUDY    46  24  42 E9        30.05F
SAN DIEGO, CA  CLEAR     56  36  47 CALM      30.00F
SAN FRANCISCO, PTCLDY    47  43  86 SW3       30.04F
SAN JOSE, CA   CLEAR     45  36  70 CALM      30.04F
SEATTLE, WA    CLOUDY    54  49  83 S13G29    29.65F
TIJUANA, MEX   CLEAR     61  19  20 E3        30.02S

$$

STATION/POSITION TIME  TEMP    WIND        PRES    VSBY  WAVE
                       AIR SEA DIR/SP/G                  HT/PER
                 (UTC) (F)     (DEG/KT/KT) (MB)    (MI)  (FT/S)
POINT ARGUELLO B NOT AVBL
WEST SANTA BARBA 1100   61 64  310/ 19/ 21 1014.5F         5/15
POINT CONCEPTION NOT AVBL
EAST SANTA BARBA 1100   63 65  330/  2/  2 1015.3F
SANTA MONICA BAY 1100   64 66   CALM  /  2 1015.4F         2/13


USA.gov is the U.S. government's official web portal to all federal, state and local government web resources and services.